| time (UTC) | temp F | wind direction | speed MPH | gust MPH | rain 1hr in | rain 24hr in | rain mn in | humidity % | barometer mb |
| 20260510154240 | 62 | 320 | 2.0 | 9.0 | 0.00 | 0.00 | 0.00 | 37 | 1026.4 |
| 20260510153740 | 62 | 259 | 3.0 | 9.0 | 0.00 | 0.00 | 0.00 | 36 | 1026.3 |
| 20260510153239 | 62 | 343 | 3.0 | 7.0 | 0.00 | 0.00 | 0.00 | 37 | 1026.4 |
| 20260510152739 | 62 | 254 | 3.0 | 10.0 | 0.00 | 0.00 | 0.00 | 36 | 1026.2 |
| 20260510152240 | 61 | 279 | 2.0 | 10.0 | 0.00 | 0.00 | 0.00 | 37 | 1026.2 |
| 20260510151739 | 61 | 244 | 3.0 | 10.0 | 0.00 | 0.00 | 0.00 | 36 | 1026.0 |
| 20260510150739 | 61 | 130 | 4.0 | 7.0 | 0.00 | 0.00 | 0.00 | 36 | 1026.0 |
| 20260510150237 | 60 | 357 | 1.0 | 9.0 | 0.00 | 0.00 | 0.00 | 37 | 1025.8 |
| 20260510145732 | 60 | 309 | 2.0 | 9.0 | 0.00 | 0.00 | 0.00 | 35 | 1025.8 |
| 20260510145232 | 60 | 114 | 1.0 | 3.0 | 0.00 | 0.00 | 0.00 | 36 | 1025.7 |
| 20260510144726 | 59 | 355 | 1.0 | 5.0 | 0.00 | 0.00 | 0.00 | 38 | 1025.5 |
| 20260510144226 | 58 | 329 | 3.0 | 5.0 | 0.00 | 0.00 | 0.00 | 36 | 1025.7 |
| 20260510143725 | 57 | 110 | 1.0 | 3.0 | 0.00 | 0.00 | 0.00 | 37 | 1025.5 |
| 20260510143220 | 56 | 317 | 0.0 | 0.0 | 0.00 | 0.00 | 0.00 | 38 | 1025.4 |
| 20260510142208 | 56 | 330 | 0.0 | 0.0 | 0.00 | 0.00 | 0.00 | 38 | 1025.5 |
| 20260510141205 | 56 | 320 | 0.0 | 0.0 | 0.00 | 0.00 | 0.00 | 38 | 1025.0 |
| 20260510140702 | 56 | 78 | 0.0 | 0.0 | 0.00 | 0.00 | 0.00 | 37 | 1025.4 |
| 20260510140203 | 55 | 78 | 0.0 | 0.0 | 0.00 | 0.00 | 0.00 | 42 | 1025.5 |
| 20260510135702 | 55 | 78 | 0.0 | 0.0 | 0.00 | 0.00 | 0.00 | 43 | 1025.4 |
| 20260510135203 | 54 | 324 | 0.0 | 0.0 | 0.00 | 0.00 | 0.00 | 42 | 1025.2 |
| 20260510134701 | 54 | 331 | 0.0 | 0.0 | 0.00 | 0.00 | 0.00 | 43 | 1025.0 |
| 20260510134202 | 53 | 331 | 0.0 | 0.0 | 0.00 | 0.00 | 0.00 | 46 | 1025.0 |
| 20260510133702 | 53 | 331 | 0.0 | 0.0 | 0.00 | 0.00 | 0.00 | 45 | 1024.8 |
| 20260510133203 | 52 | 240 | 0.0 | 0.0 | 0.00 | 0.00 | 0.00 | 45 | 1024.7 |
| 20260510132702 | 52 | 151 | 0.0 | 0.0 | 0.00 | 0.00 | 0.00 | 44 | 1024.5 |
| 20260510132202 | 52 | 243 | 0.0 | 0.0 | 0.00 | 0.00 | 0.00 | 44 | 1024.4 |
| 20260510131702 | 51 | 275 | 0.0 | 1.0 | 0.00 | 0.00 | 0.00 | 45 | 1024.4 |
| 20260510130702 | 49 | 314 | 0.0 | 4.0 | 0.00 | 0.00 | 0.00 | 44 | 1024.7 |
| 20260510130204 | 48 | 278 | 1.0 | 2.0 | 0.00 | 0.00 | 0.00 | 48 | 1024.7 |
| 20260510125707 | 48 | 157 | 1.0 | 2.0 | 0.00 | 0.00 | 0.00 | 48 | 1023.9 |
| 20260510124702 | 48 | 173 | 0.0 | 2.0 | 0.00 | 0.00 | 0.00 | 48 | 1023.5 |
| 20260510124203 | 47 | 200 | 1.0 | 2.0 | 0.00 | 0.00 | 0.00 | 50 | 1023.2 |
| 20260510123702 | 46 | 179 | 0.0 | 1.0 | 0.00 | 0.00 | 0.00 | 51 | 1023.3 |
| 20260510123202 | 46 | 295 | 0.0 | 1.0 | 0.00 | 0.00 | 0.00 | 50 | 1023.2 |
| 20260510122703 | 45 | 149 | 0.0 | 1.0 | 0.00 | 0.00 | 0.00 | 51 | 1023.2 |
| 20260510122203 | 45 | 162 | 0.0 | 3.0 | 0.00 | 0.00 | 0.00 | 51 | 1022.9 |
| 20260510121703 | 44 | 292 | 1.0 | 3.0 | 0.00 | 0.00 | 0.00 | 52 | 1022.9 |
| 20260510121202 | 44 | 243 | 0.0 | 1.0 | 0.00 | 0.00 | 0.00 | 53 | 1022.7 |
| 20260510120703 | 44 | 252 | 0.0 | 1.0 | 0.00 | 0.00 | 0.00 | 51 | 1022.5 |
| 20260510115703 | 44 | 252 | 0.0 | 1.0 | 0.00 | 0.00 | 0.00 | 54 | 1022.4 |
| 20260510115202 | 44 | 295 | 0.0 | 0.0 | 0.00 | 0.00 | 0.00 | 53 | 1022.4 |
| 20260510114702 | 44 | 295 | 0.0 | 0.0 | 0.00 | 0.00 | 0.00 | 55 | 1022.4 |
| 20260510114202 | 44 | 295 | 0.0 | 0.0 | 0.00 | 0.00 | 0.00 | 51 | 1022.4 |
| 20260510113202 | 45 | 295 | 0.0 | 0.0 | 0.00 | 0.00 | 0.00 | 51 | 1022.3 |
| 20260510112702 | 46 | 295 | 0.0 | 0.0 | 0.00 | 0.00 | 0.00 | 50 | 1022.4 |
| 20260510112202 | 47 | 295 | 0.0 | 1.0 | 0.00 | 0.00 | 0.00 | 50 | 1022.3 |
| 20260510111703 | 48 | 295 | 0.0 | 1.0 | 0.00 | 0.00 | 0.00 | 49 | 1022.3 |
| 20260510111202 | 48 | 295 | 0.0 | 2.0 | 0.00 | 0.00 | 0.00 | 46 | 1022.2 |
| 20260510110702 | 49 | 161 | 0.0 | 2.0 | 0.00 | 0.00 | 0.00 | 47 | 1022.2 |
| 20260510110202 | 48 | 188 | 0.0 | 2.0 | 0.00 | 0.00 | 0.00 | 46 | 1022.2 |
| 20260510105702 | 47 | 165 | 1.0 | 2.0 | 0.00 | 0.00 | 0.00 | 49 | 1022.0 |
| 20260510105203 | 46 | 168 | 0.0 | 1.0 | 0.00 | 0.00 | 0.00 | 51 | 1022.0 |
| 20260510104702 | 44 | 196 | 0.0 | 1.0 | 0.00 | 0.00 | 0.00 | 55 | 1022.0 |
| 20260510104202 | 44 | 120 | 0.0 | 0.0 | 0.00 | 0.00 | 0.00 | 56 | 1022.0 |
| 20260510103703 | 45 | 118 | 0.0 | 0.0 | 0.00 | 0.00 | 0.00 | 54 | 1021.9 |
| 20260510103201 | 46 | 118 | 0.0 | 1.0 | 0.00 | 0.00 | 0.00 | 53 | 1021.8 |
| 20260510102659 | 46 | 125 | 0.0 | 3.0 | 0.00 | 0.00 | 0.00 | 53 | 1021.8 |
| 20260510102152 | 44 | 113 | 0.0 | 3.0 | 0.00 | 0.00 | 0.00 | 56 | 1021.9 |
| 20260510101650 | 43 | 255 | 0.0 | 1.0 | 0.00 | 0.00 | 0.00 | 57 | 1021.9 |
| 20260510101148 | 43 | 255 | 0.0 | 1.0 | 0.00 | 0.00 | 0.00 | 57 | 1021.8 |
| 20260510100145 | 42 | 276 | 0.0 | 1.0 | 0.00 | 0.00 | 0.00 | 58 | 1021.7 |
| 20260510095643 | 42 | 169 | 0.0 | 0.0 | 0.00 | 0.00 | 0.00 | 60 | 1021.7 |
| 20260510095141 | 42 | 169 | 0.0 | 0.0 | 0.00 | 0.00 | 0.00 | 59 | 1021.5 |
| 20260510094137 | 42 | 169 | 0.0 | 0.0 | 0.00 | 0.00 | 0.00 | 58 | 1021.4 |
| 20260510093131 | 42 | 173 | 0.0 | 0.0 | 0.00 | 0.00 | 0.00 | 56 | 1021.4 |
| 20260510092633 | 42 | 173 | 0.0 | 0.0 | 0.00 | 0.00 | 0.00 | 57 | 1021.3 |
| 20260510092132 | 42 | 173 | 0.0 | 0.0 | 0.00 | 0.00 | 0.00 | 56 | 1021.3 |
| 20260510091633 | 43 | 173 | 0.0 | 0.0 | 0.00 | 0.00 | 0.00 | 57 | 1021.2 |
| 20260510091130 | 43 | 173 | 0.0 | 0.0 | 0.00 | 0.00 | 0.00 | 54 | 1021.2 |
| 20260510090630 | 43 | 173 | 0.0 | 0.0 | 0.00 | 0.00 | 0.00 | 55 | 1021.3 |
| 20260510090130 | 44 | 173 | 0.0 | 0.0 | 0.00 | 0.00 | 0.00 | 53 | 1021.2 |
| 20260510085630 | 44 | 173 | 0.0 | 0.0 | 0.00 | 0.00 | 0.00 | 54 | 1021.2 |
| 20260510085130 | 44 | 173 | 0.0 | 0.0 | 0.00 | 0.00 | 0.00 | 54 | 1021.0 |
| 20260510084630 | 44 | 173 | 0.0 | 0.0 | 0.00 | 0.00 | 0.00 | 54 | 1021.2 |
| 20260510083130 | 45 | 173 | 0.0 | 0.0 | 0.00 | 0.00 | 0.00 | 53 | 1021.0 |
| 20260510082630 | 45 | 173 | 0.0 | 0.0 | 0.00 | 0.00 | 0.00 | 52 | 1020.9 |
| 20260510082129 | 45 | 173 | 0.0 | 1.0 | 0.00 | 0.00 | 0.00 | 52 | 1021.0 |
| 20260510081628 | 45 | 173 | 0.0 | 1.0 | 0.00 | 0.00 | 0.00 | 52 | 1020.9 |
| 20260510081130 | 45 | 159 | 0.0 | 0.0 | 0.00 | 0.00 | 0.00 | 51 | 1021.0 |
| 20260510080630 | 46 | 159 | 0.0 | 1.0 | 0.00 | 0.00 | 0.00 | 52 | 1021.0 |
| 20260510080129 | 46 | 159 | 0.0 | 1.0 | 0.00 | 0.00 | 0.00 | 51 | 1021.0 |
| 20260510075629 | 45 | 162 | 0.0 | 1.0 | 0.00 | 0.00 | 0.00 | 52 | 1021.2 |
| 20260510075129 | 45 | 147 | 0.0 | 0.0 | 0.00 | 0.00 | 0.00 | 52 | 1021.4 |
| 20260510074629 | 44 | 151 | 0.0 | 0.0 | 0.00 | 0.00 | 0.00 | 51 | 1021.3 |
| 20260510074129 | 45 | 149 | 0.0 | 0.0 | 0.00 | 0.00 | 0.00 | 50 | 1021.3 |
| 20260510073629 | 45 | 149 | 0.0 | 0.0 | 0.00 | 0.00 | 0.00 | 51 | 1021.3 |
| 20260510073129 | 45 | 149 | 0.0 | 0.0 | 0.00 | 0.00 | 0.00 | 48 | 1021.3 |
| 20260510072627 | 45 | 149 | 0.0 | 0.0 | 0.00 | 0.00 | 0.00 | 49 | 1021.3 |
| 20260510072127 | 45 | 149 | 0.0 | 0.0 | 0.00 | 0.00 | 0.00 | 48 | 1021.3 |
| 20260510071121 | 45 | 149 | 0.0 | 0.0 | 0.00 | 0.00 | 0.00 | 51 | 1021.4 |
| 20260510070619 | 45 | 138 | 0.0 | 0.0 | 0.00 | 0.00 | 0.00 | 49 | 1021.5 |
| 20260510065615 | 45 | 195 | 0.0 | 0.0 | 0.00 | 0.00 | 0.00 | 49 | 1021.5 |
| 20260510064611 | 45 | 195 | 0.0 | 0.0 | 0.00 | 0.00 | 0.00 | 47 | 1021.5 |
| 20260510063610 | 46 | 195 | 0.0 | 0.0 | 0.00 | 0.00 | 0.00 | 49 | 1021.7 |
| 20260510063108 | 46 | 195 | 0.0 | 0.0 | 0.00 | 0.00 | 0.00 | 48 | 1021.7 |
| 20260510061600 | 47 | 195 | 0.0 | 1.0 | 0.00 | 0.00 | 0.00 | 47 | 1021.7 |
| 20260510060556 | 47 | 182 | 0.0 | 0.0 | 0.00 | 0.00 | 0.00 | 44 | 1021.9 |
| 20260510060057 | 47 | 182 | 0.0 | 0.0 | 0.00 | 0.00 | 0.00 | 45 | 1021.9 |
| 20260510055552 | 47 | 182 | 0.0 | 0.0 | 0.00 | 0.00 | 0.00 | 45 | 1021.9 |
| 20260510055050 | 46 | 182 | 0.0 | 0.0 | 0.00 | 0.00 | 0.00 | 44 | 1021.8 |
| 20260510054543 | 46 | 182 | 0.0 | 0.0 | 0.00 | 0.00 | 0.00 | 47 | 1021.9 |
| 20260510054039 | 46 | 182 | 0.0 | 0.0 | 0.00 | 0.00 | 0.00 | 47 | 1022.0 |
| 20260510053536 | 46 | 182 | 0.0 | 0.0 | 0.00 | 0.00 | 0.00 | 47 | 1021.9 |
| 20260510053035 | 46 | 182 | 0.0 | 0.0 | 0.00 | 0.00 | 0.00 | 46 | 1021.8 |
| 20260510052535 | 46 | 182 | 0.0 | 0.0 | 0.00 | 0.00 | 0.00 | 45 | 1021.8 |
| 20260510052033 | 46 | 182 | 0.0 | 0.0 | 0.00 | 0.00 | 0.00 | 44 | 1021.9 |
| 20260510051532 | 46 | 182 | 0.0 | 0.0 | 0.00 | 0.00 | 0.00 | 44 | 1021.8 |
| 20260510050532 | 46 | 182 | 0.0 | 0.0 | 0.00 | 0.00 | 0.00 | 45 | 1021.9 |
| 20260510045531 | 46 | 182 | 0.0 | 0.0 | 0.00 | 0.00 | 0.00 | 43 | 1022.0 |
| 20260510045030 | 47 | 182 | 0.0 | 0.0 | 0.00 | 0.00 | 0.00 | 43 | 1022.2 |
| 20260510043525 | 46 | 182 | 0.0 | 3.0 | 0.00 | 0.00 | 0.00 | 45 | 1021.9 |
| 20260510042524 | 45 | 209 | 0.0 | 0.0 | 0.00 | 0.00 | 0.00 | 45 | 1021.9 |
| 20260510042024 | 45 | 209 | 0.0 | 0.0 | 0.00 | 0.00 | 0.00 | 43 | 1022.0 |
| 20260510041524 | 46 | 209 | 0.0 | 0.0 | 0.00 | 0.00 | 0.00 | 44 | 1022.0 |
| 20260510041024 | 46 | 209 | 0.0 | 0.0 | 0.00 | 0.00 | 0.00 | 44 | 1022.0 |
| 20260510035523 | 47 | 209 | 0.0 | 0.0 | 0.00 | 0.00 | 0.00 | 42 | 1022.0 |
| 20260510035021 | 48 | 209 | 0.0 | 0.0 | 0.00 | 0.00 | 0.00 | 41 | 1022.0 |
| 20260510034522 | 48 | 209 | 0.0 | 0.0 | 0.00 | 0.00 | 0.00 | 41 | 1022.0 |
| 20260510034014 | 48 | 209 | 0.0 | 0.0 | 0.00 | 0.00 | 0.00 | 40 | 1021.9 |
| 20260510033513 | 49 | 209 | 0.0 | 0.0 | 0.00 | 0.00 | 0.00 | 40 | 1022.0 |
| 20260510033010 | 49 | 209 | 0.0 | 0.0 | 0.00 | 0.00 | 0.00 | 38 | 1021.9 |
| 20260510032511 | 49 | 209 | 0.0 | 0.0 | 0.00 | 0.00 | 0.00 | 39 | 1021.9 |
| 20260510032009 | 49 | 209 | 0.0 | 0.0 | 0.00 | 0.00 | 0.00 | 38 | 1021.9 |
| 20260510031508 | 49 | 209 | 0.0 | 0.0 | 0.00 | 0.00 | 0.00 | 38 | 1021.8 |
| 20260510030506 | 50 | 209 | 0.0 | 0.0 | 0.00 | 0.00 | 0.00 | 37 | 1021.8 |
| 20260510030005 | 50 | 209 | 0.0 | 0.0 | 0.00 | 0.00 | 0.00 | 37 | 1021.7 |
| 20260510025004 | 52 | 209 | 0.0 | 0.0 | 0.00 | 0.00 | 0.00 | 35 | 1021.5 |
| 20260510024504 | 52 | 209 | 0.0 | 0.0 | 0.00 | 0.00 | 0.00 | 36 | 1021.4 |
| 20260510023503 | 54 | 209 | 0.0 | 0.0 | 0.00 | 0.00 | 0.00 | 34 | 1021.4 |
| 20260510022505 | 55 | 209 | 0.0 | 0.0 | 0.00 | 0.00 | 0.00 | 32 | 1021.3 |
| 20260510022004 | 57 | 209 | 0.0 | 0.0 | 0.00 | 0.00 | 0.00 | 31 | 1021.2 |
| 20260510021504 | 58 | 209 | 0.0 | 0.0 | 0.00 | 0.00 | 0.00 | 30 | 1021.2 |
| 20260510021004 | 59 | 209 | 0.0 | 1.0 | 0.00 | 0.00 | 0.00 | 30 | 1021.0 |
| 20260510020001 | 60 | 209 | 0.0 | 1.0 | 0.00 | 0.00 | 0.00 | 26 | 1021.0 |
| 20260510015459 | 61 | 209 | 0.0 | 1.0 | 0.00 | 0.00 | 0.00 | 27 | 1021.0 |
| 20260510015000 | 62 | 209 | 0.0 | 2.0 | 0.00 | 0.00 | 0.00 | 25 | 1020.9 |
| 20260510014459 | 63 | 206 | 0.0 | 2.0 | 0.00 | 0.00 | 0.00 | 25 | 1020.8 |
| 20260510013956 | 64 | 209 | 0.0 | 1.0 | 0.00 | 0.00 | 0.00 | 23 | 1020.7 |
| 20260510012956 | 66 | 164 | 0.0 | 3.0 | 0.00 | 0.00 | 0.00 | 22 | 1020.5 |
| 20260510011950 | 67 | 224 | 1.0 | 3.0 | 0.00 | 0.00 | 0.00 | 22 | 1020.4 |
| 20260510011452 | 67 | 133 | 0.0 | 2.0 | 0.00 | 0.00 | 0.00 | 21 | 1020.4 |
| 20260510010950 | 68 | 223 | 0.0 | 4.0 | 0.00 | 0.00 | 0.00 | 20 | 1020.4 |
| 20260510010442 | 69 | 124 | 0.0 | 7.0 | 0.00 | 0.00 | 0.00 | 19 | 1020.4 |
| 20260510005941 | 69 | 90 | 2.0 | 7.0 | 0.00 | 0.00 | 0.00 | 18 | 1020.3 |
| 20260510005441 | 70 | 79 | 3.0 | 9.0 | 0.00 | 0.00 | 0.00 | 18 | 1020.5 |
| 20260510004939 | 70 | 79 | 2.0 | 9.0 | 0.00 | 0.00 | 0.00 | 18 | 1020.4 |
| 20260510004437 | 70 | 144 | 2.0 | 12.0 | 0.00 | 0.00 | 0.00 | 19 | 1020.5 |
| 20260510003437 | 70 | 8 | 5.0 | 9.0 | 0.00 | 0.00 | 0.00 | 18 | 1020.3 |
| 20260510002935 | 70 | 80 | 0.0 | 9.0 | 0.00 | 0.00 | 0.00 | 19 | 1020.4 |
| 20260510002435 | 71 | 61 | 3.0 | 13.0 | 0.00 | 0.00 | 0.00 | 18 | 1020.3 |
| 20260510001935 | 71 | 66 | 5.0 | 13.0 | 0.00 | 0.00 | 0.00 | 17 | 1020.5 |
| 20260510001433 | 71 | 78 | 4.0 | 12.0 | 0.00 | 0.00 | 0.00 | 17 | 1020.4 |
| 20260510000433 | 71 | 44 | 2.0 | 9.0 | 0.00 | 0.00 | 0.00 | 18 | 1020.4 |
| 20260509235933 | 71 | 102 | 2.0 | 5.0 | 0.00 | 0.00 | 0.00 | 20 | 1020.4 |
| 20260509235433 | 72 | 92 | 1.0 | 6.0 | 0.00 | 0.00 | 0.00 | 17 | 1020.4 |
| 20260509234432 | 72 | 25 | 0.0 | 11.0 | 0.00 | 0.00 | 0.00 | 17 | 1020.5 |
| 20260509233933 | 72 | 48 | 3.0 | 15.0 | 0.00 | 0.00 | 0.00 | 17 | 1020.7 |
| 20260509233434 | 72 | 65 | 4.0 | 15.0 | 0.00 | 0.00 | 0.00 | 17 | 1020.7 |
| 20260509232933 | 72 | 58 | 5.0 | 15.0 | 0.00 | 0.00 | 0.00 | 18 | 1020.5 |
| 20260509232433 | 72 | 296 | 1.0 | 9.0 | 0.00 | 0.00 | 0.00 | 17 | 1020.4 |
| 20260509231933 | 72 | 114 | 3.0 | 13.0 | 0.00 | 0.00 | 0.00 | 18 | 1020.7 |
| 20260509231433 | 72 | 56 | 7.0 | 13.0 | 0.00 | 0.00 | 0.00 | 16 | 1020.5 |
| 20260509230932 | 73 | 62 | 4.0 | 12.0 | 0.00 | 0.00 | 0.00 | 16 | 1020.5 |
| 20260509230432 | 73 | 327 | 1.0 | 7.0 | 0.00 | 0.00 | 0.00 | 17 | 1020.7 |
| 20260509225932 | 73 | 310 | 4.0 | 11.0 | 0.00 | 0.00 | 0.00 | 16 | 1020.8 |
| 20260509225433 | 73 | 47 | 2.0 | 14.0 | 0.00 | 0.00 | 0.00 | 17 | 1020.7 |
| 20260509224933 | 73 | 63 | 5.0 | 14.0 | 0.00 | 0.00 | 0.00 | 17 | 1020.8 |
| 20260509224433 | 73 | 7 | 2.0 | 10.0 | 0.00 | 0.00 | 0.00 | 19 | 1020.7 |
| 20260509223933 | 73 | 52 | 2.0 | 9.0 | 0.00 | 0.00 | 0.00 | 17 | 1020.8 |
| 20260509223433 | 74 | 281 | 4.0 | 14.0 | 0.00 | 0.00 | 0.00 | 18 | 1020.7 |
| 20260509222932 | 73 | 51 | 7.0 | 14.0 | 0.00 | 0.00 | 0.00 | 16 | 1020.9 |
| 20260509222432 | 74 | 71 | 7.0 | 13.0 | 0.00 | 0.00 | 0.00 | 15 | 1020.9 |
| 20260509221933 | 73 | 28 | 4.0 | 13.0 | 0.00 | 0.00 | 0.00 | 15 | 1020.7 |
| 20260509221432 | 74 | 78 | 6.0 | 13.0 | 0.00 | 0.00 | 0.00 | 16 | 1020.7 |
| 20260509220933 | 75 | 158 | 3.0 | 11.0 | 0.00 | 0.00 | 0.00 | 15 | 1020.7 |
| 20260509220433 | 75 | 110 | 3.0 | 12.0 | 0.00 | 0.00 | 0.00 | 17 | 1020.9 |
| 20260509215932 | 75 | 44 | 7.0 | 12.0 | 0.00 | 0.00 | 0.00 | 15 | 1021.0 |
| 20260509214933 | 74 | 102 | 3.0 | 10.0 | 0.00 | 0.00 | 0.00 | 19 | 1021.0 |
| 20260509214428 | 74 | 124 | 5.0 | 14.0 | 0.00 | 0.00 | 0.00 | 16 | 1021.0 |
| 20260509213419 | 75 | 58 | 3.0 | 14.0 | 0.00 | 0.00 | 0.00 | 16 | 1021.3 |
| 20260509212917 | 75 | 134 | 3.0 | 14.0 | 0.00 | 0.00 | 0.00 | 18 | 1021.3 |
| 20260509212416 | 75 | 31 | 5.0 | 11.0 | 0.00 | 0.00 | 0.00 | 16 | 1021.3 |
| 20260509211915 | 75 | 56 | 4.0 | 15.0 | 0.00 | 0.00 | 0.00 | 17 | 1021.0 |
| 20260509211415 | 75 | 96 | 6.0 | 15.0 | 0.00 | 0.00 | 0.00 | 17 | 1021.5 |
| 20260509210915 | 75 | 355 | 6.0 | 14.0 | 0.00 | 0.00 | 0.00 | 16 | 1021.5 |
| 20260509205914 | 75 | 47 | 4.0 | 12.0 | 0.00 | 0.00 | 0.00 | 16 | 1021.5 |
| 20260509204914 | 75 | 87 | 4.0 | 12.0 | 0.00 | 0.00 | 0.00 | 17 | 1021.7 |
| 20260509204416 | 74 | 103 | 4.0 | 9.0 | 0.00 | 0.00 | 0.00 | 17 | 1021.7 |
| 20260509203415 | 74 | 56 | 7.0 | 16.0 | 0.00 | 0.00 | 0.00 | 16 | 1021.8 |
| 20260509202914 | 75 | 59 | 6.0 | 14.0 | 0.00 | 0.00 | 0.00 | 16 | 1021.9 |
| 20260509202415 | 75 | 69 | 3.0 | 12.0 | 0.00 | 0.00 | 0.00 | 19 | 1021.9 |
| 20260509201915 | 75 | 172 | 2.0 | 12.0 | 0.00 | 0.00 | 0.00 | 17 | 1021.9 |
| 20260509201414 | 76 | 92 | 6.0 | 10.0 | 0.00 | 0.00 | 0.00 | 16 | 1022.0 |
| 20260509200914 | 75 | 197 | 3.0 | 12.0 | 0.00 | 0.00 | 0.00 | 17 | 1021.9 |
| 20260509200414 | 75 | 71 | 6.0 | 14.0 | 0.00 | 0.00 | 0.00 | 16 | 1021.9 |
| 20260509195914 | 76 | 109 | 4.0 | 14.0 | 0.00 | 0.00 | 0.00 | 16 | 1022.0 |
| 20260509193914 | 74 | 38 | 4.0 | 10.0 | 0.00 | 0.00 | 0.00 | 18 | 1022.0 |
| 20260509193414 | 73 | 54 | 3.0 | 11.0 | 0.00 | 0.00 | 0.00 | 17 | 1022.2 |
| 20260509192913 | 74 | 68 | 3.0 | 11.0 | 0.00 | 0.00 | 0.00 | 19 | 1022.3 |
| 20260509192413 | 74 | 32 | 4.0 | 11.0 | 0.00 | 0.00 | 0.00 | 17 | 1022.3 |
| 20260509191914 | 74 | 130 | 4.0 | 9.0 | 0.00 | 0.00 | 0.00 | 18 | 1022.4 |
| 20260509191413 | 73 | 55 | 5.0 | 9.0 | 0.00 | 0.00 | 0.00 | 18 | 1022.3 |
| 20260509190913 | 74 | 269 | 1.0 | 7.0 | 0.00 | 0.00 | 0.00 | 16 | 1022.4 |
| 20260509190411 | 75 | 303 | 3.0 | 9.0 | 0.00 | 0.00 | 0.00 | 18 | 1022.4 |
| 20260509185411 | 74 | 28 | 3.0 | 7.0 | 0.00 | 0.00 | 0.00 | 18 | 1022.3 |
| 20260509184910 | 76 | 73 | 4.0 | 11.0 | 0.00 | 0.00 | 0.00 | 16 | 1022.5 |
| 20260509182902 | 75 | 21 | 2.0 | 10.0 | 0.00 | 0.00 | 0.00 | 17 | 1022.5 |
| 20260509182402 | 75 | 288 | 2.0 | 4.0 | 0.00 | 0.00 | 0.00 | 17 | 1022.7 |
| 20260509181402 | 74 | 137 | 4.0 | 9.0 | 0.00 | 0.00 | 0.00 | 16 | 1022.8 |
| 20260509180902 | 73 | 121 | 3.0 | 9.0 | 0.00 | 0.00 | 0.00 | 16 | 1022.8 |
| 20260509175903 | 72 | 158 | 1.0 | 5.0 | 0.00 | 0.00 | 0.00 | 17 | 1022.9 |
| 20260509175402 | 72 | 172 | 2.0 | 6.0 | 0.00 | 0.00 | 0.00 | 16 | 1022.9 |
| 20260509174903 | 73 | 61 | 2.0 | 6.0 | 0.00 | 0.00 | 0.00 | 17 | 1023.0 |
| 20260509174403 | 75 | 78 | 3.0 | 7.0 | 0.00 | 0.00 | 0.00 | 17 | 1023.2 |
| 20260509173402 | 76 | 106 | 4.0 | 9.0 | 0.00 | 0.00 | 0.00 | 15 | 1022.9 |
| 20260509172903 | 76 | 16 | 2.0 | 9.0 | 0.00 | 0.00 | 0.00 | 16 | 1023.0 |
| 20260509172402 | 75 | 49 | 2.0 | 7.0 | 0.00 | 0.00 | 0.00 | 16 | 1023.2 |
| 20260509171902 | 75 | 23 | 4.0 | 9.0 | 0.00 | 0.00 | 0.00 | 16 | 1023.2 |
| 20260509171403 | 75 | 68 | 4.0 | 9.0 | 0.00 | 0.00 | 0.00 | 17 | 1023.0 |
| 20260509170401 | 74 | 31 | 2.0 | 6.0 | 0.00 | 0.00 | 0.00 | 18 | 1023.0 |
| 20260509165902 | 74 | 3 | 2.0 | 9.0 | 0.00 | 0.00 | 0.00 | 18 | 1023.0 |
| 20260509165401 | 74 | 56 | 5.0 | 9.0 | 0.00 | 0.00 | 0.00 | 17 | 1022.9 |
| 20260509164859 | 74 | 25 | 2.0 | 5.0 | 0.00 | 0.00 | 0.00 | 17 | 1023.0 |
| 20260509164359 | 73 | 85 | 2.0 | 5.0 | 0.00 | 0.00 | 0.00 | 18 | 1023.2 |
| 20260509163856 | 73 | 103 | 2.0 | 6.0 | 0.00 | 0.00 | 0.00 | 17 | 1022.9 |
| 20260509163351 | 73 | 69 | 3.0 | 7.0 | 0.00 | 0.00 | 0.00 | 17 | 1023.2 |
| 20260509162849 | 72 | 340 | 4.0 | 7.0 | 0.00 | 0.00 | 0.00 | 18 | 1023.0 |
| 20260509162348 | 72 | 248 | 2.0 | 10.0 | 0.00 | 0.00 | 0.00 | 17 | 1023.0 |
| 20260509161847 | 72 | 117 | 4.0 | 10.0 | 0.00 | 0.00 | 0.00 | 17 | 1023.0 |
| 20260509161345 | 72 | 62 | 3.0 | 9.0 | 0.00 | 0.00 | 0.00 | 17 | 1023.2 |
| 20260509160844 | 72 | 35 | 2.0 | 6.0 | 0.00 | 0.00 | 0.00 | 17 | 1023.0 |
| 20260509160344 | 72 | 24 | 3.0 | 6.0 | 0.00 | 0.00 | 0.00 | 19 | 1023.2 |
| 20260509155843 | 71 | 178 | 1.0 | 10.0 | 0.00 | 0.00 | 0.00 | 18 | 1023.0 |
| 20260509155341 | 71 | 58 | 3.0 | 10.0 | 0.00 | 0.00 | 0.00 | 19 | 1023.2 |
| 20260509154841 | 71 | 357 | 4.0 | 9.0 | 0.00 | 0.00 | 0.00 | 19 | 1023.0 |